period_start,C,m1,H,J0,J1,J2,J3,J4,J5,JA,JB,JC,JD,JJ,JK,JN,#
2018-01-16 00:01:28,0.20,3.82,0.00,19.99,20.77,24.30,14.11,45.52,1022.96,2050.75,2129.03,2091.04,2414.46,600.28,606.23,13.37,0000 0000 0000 0000 000000
2018-01-16 00:06:29,0.22,3.83,0.00,19.99,20.79,24.33,13.99,45.53,1022.96,2050.78,2126.35,2089.28,2412.52,600.01,605.91,13.42,0000 0000 0000 0000 000000
2018-01-16 00:11:30,0.22,3.85,0.00,20.02,20.79,24.32,14.02,45.58,1022.96,2050.89,2123.80,2087.56,2410.63,599.81,605.71,13.47,0000 0000 0000 0000 000000
2018-01-16 00:16:31,0.22,3.86,0.00,20.01,20.79,24.32,14.13,45.63,1022.97,2050.95,2121.23,2085.80,2408.69,599.96,605.93,13.52,0000 0000 0000 0000 000000
2018-01-16 00:21:33,0.20,3.87,0.00,20.00,20.79,24.32,14.07,45.37,1022.97,2050.95,2118.86,2084.08,2406.65,600.19,606.02,13.57,0000 0000 0000 0000 000000
2018-01-16 00:26:34,0.25,3.88,0.00,20.01,20.80,24.32,14.02,45.52,1022.96,2050.75,2115.92,2082.01,2404.17,600.22,606.18,13.62,0000 0000 0000 0000 000000
2018-01-16 00:31:35,0.28,3.89,0.00,20.02,20.82,24.31,14.09,45.52,1022.96,2050.64,2112.46,2079.53,2401.42,600.09,605.95,13.67,0000 0000 0000 0000 000000
2018-01-16 00:36:36,0.37,3.91,0.00,20.04,20.82,24.33,14.02,45.35,1022.97,2050.52,2108.16,2076.44,2397.88,599.74,605.51,13.72,0000 0000 0000 0000 000000
2018-01-16 00:41:38,0.28,3.93,0.00,20.06,20.82,24.35,14.07,45.50,1022.97,2050.32,2104.22,2073.71,2394.79,600.04,605.83,13.77,0000 0000 0000 0000 000000
2018-01-16 00:46:39,0.20,3.94,0.00,20.06,20.82,24.34,14.10,45.52,1022.98,2050.20,2101.38,2071.74,2392.70,600.09,605.83,13.82,0000 0000 0000 0000 000000
2018-01-16 00:51:40,0.24,3.95,0.00,20.05,20.84,24.36,14.02,45.48,1022.99,2050.10,2098.64,2069.64,2390.52,599.98,605.69,13.87,0000 0000 0000 0000 000000
2018-01-16 00:56:41,0.20,3.96,0.00,20.03,20.84,24.36,14.03,45.51,1022.97,2050.14,2096.29,2067.91,2388.64,600.20,606.05,13.92,0000 0000 0000 0000 000000
2018-01-16 01:01:43,0.19,3.97,0.00,20.04,20.84,24.33,14.00,45.41,1022.98,2050.06,2094.00,2066.32,2386.74,600.12,605.97,13.97,0000 0000 0000 0000 000000
2018-01-16 01:06:44,0.32,3.98,0.00,20.04,20.84,24.38,13.98,45.24,1022.96,2050.06,2090.64,2063.94,2383.97,599.90,605.72,14.02,0000 0000 0000 0000 000000
2018-01-16 01:11:45,0.43,4.00,0.00,20.03,20.85,24.38,13.96,45.31,1022.97,2050.03,2085.96,2060.47,2380.03,599.87,605.63,14.07,0000 0000 0000 0000 000000
2018-01-16 01:16:47,0.41,4.02,0.00,20.04,20.85,24.36,13.98,45.23,1022.97,2050.04,2081.26,2057.17,2376.27,599.54,605.47,14.12,0000 0000 0000 0000 000000
2018-01-16 01:21:48,0.44,4.05,0.00,20.05,20.86,24.41,13.96,45.31,1022.97,2050.01,2076.06,2053.56,2372.09,599.91,605.80,14.17,0000 0000 0000 0000 000000
2018-01-16 01:26:49,0.39,4.07,0.00,20.07,20.87,24.37,14.08,45.16,1023.02,2050.00,2071.31,2050.24,2368.29,599.79,605.58,14.22,0000 0000 0000 0000 000000
2018-01-16 01:31:51,0.33,4.09,0.00,20.05,20.87,24.39,14.09,45.18,1023.24,2050.00,2067.40,2047.60,2365.29,600.27,606.22,14.27,0000 0000 0000 0000 000000
2018-01-16 01:36:52,0.37,4.10,0.00,20.08,20.87,24.38,14.04,45.11,1023.30,2050.00,2062.94,2044.76,2361.90,599.92,605.89,14.32,0000 0000 0000 0000 000000
2018-01-16 01:41:53,0.33,4.12,0.00,20.08,20.87,24.38,14.06,45.18,1023.42,2050.00,2058.98,2042.11,2358.99,600.09,606.23,14.37,0000 0000 0000 0000 000000
2018-01-16 01:46:54,0.35,4.14,0.00,20.08,20.87,24.38,13.95,45.13,1023.45,2050.00,2054.94,2039.29,2355.82,599.87,605.81,14.42,0000 0000 0000 0000 000000
2018-01-16 01:51:55,0.34,4.16,0.00,20.08,20.87,24.38,14.02,45.13,1023.44,2050.00,2050.94,2036.50,2352.64,599.84,605.85,14.47,0000 0000 0000 0000 000000
2018-01-16 01:56:57,0.34,4.17,0.00,20.07,20.87,24.37,14.09,45.17,1023.45,2049.99,2047.15,2033.73,2349.51,599.95,605.93,14.52,0000 0000 0000 0000 000000
2018-01-16 02:01:58,0.35,4.19,0.00,20.08,20.87,24.42,14.03,45.13,1023.45,2049.99,2043.40,2030.98,2346.38,600.02,606.06,14.57,0000 0000 0000 0000 000000
2018-01-16 02:06:59,0.33,4.21,0.00,20.07,20.87,24.40,14.04,44.96,1023.45,2049.98,2039.67,2028.27,2343.27,599.84,605.75,14.62,0000 0000 0000 0000 000000
2018-01-16 02:12:01,0.36,4.23,0.00,20.07,20.88,24.40,14.03,45.06,1023.45,2049.99,2035.62,2025.43,2340.15,599.97,606.00,14.67,0000 0000 0000 0000 000000
2018-01-16 02:17:02,0.33,4.25,0.00,20.09,20.89,24.39,14.05,44.96,1023.45,2049.99,2031.82,2022.86,2337.30,599.98,606.02,14.72,0000 0000 0000 0000 000000
2018-01-16 02:22:03,0.32,4.26,0.00,20.09,20.89,24.40,14.10,45.10,1023.45,2049.99,2028.10,2020.26,2334.46,599.92,605.99,14.77,0000 0000 0000 0000 000000
2018-01-16 02:27:05,0.29,4.27,0.00,20.09,20.89,24.43,14.02,45.15,1023.45,2049.99,2024.87,2018.00,2331.91,600.22,606.25,14.82,0000 0000 0000 0000 000000
2018-01-16 02:32:06,0.29,4.29,0.00,20.10,20.89,24.39,14.02,45.04,1023.45,2049.99,2021.53,2015.70,2329.41,600.24,606.22,14.87,0000 0000 0000 0000 000000
2018-01-16 02:37:07,0.29,4.31,0.00,20.11,20.90,24.40,14.08,45.13,1023.48,2049.98,2018.16,2013.37,2326.79,600.72,606.75,14.92,0000 0000 0000 0000 000000
2018-01-16 02:42:08,0.24,4.32,0.00,20.10,20.90,24.42,14.03,44.92,1023.58,2049.99,2015.31,2011.37,2324.45,600.21,606.26,14.97,0000 0000 0000 0000 000000
2018-01-16 02:47:10,0.22,4.33,0.00,20.14,20.92,24.41,14.04,44.97,1023.78,2049.98,2012.84,2009.62,2322.45,600.08,606.16,15.02,0000 0000 0000 0000 000000
2018-01-16 02:52:11,0.22,4.34,0.00,20.14,20.92,24.44,14.04,45.02,1023.93,2049.98,2010.48,2007.88,2320.45,599.78,605.93,15.07,0000 0000 0000 0000 000000
2018-01-16 02:57:13,0.22,4.35,0.00,20.15,20.92,24.43,13.98,44.92,1023.81,2049.98,2008.18,2006.15,2318.42,600.23,606.01,15.12,0000 0000 0000 0000 000000
2018-01-16 03:02:14,0.28,4.37,0.00,20.13,20.92,24.43,14.08,44.87,1023.87,2049.97,2005.31,2004.15,2316.11,600.31,606.49,15.17,0000 0000 0000 0000 000000
2018-01-16 03:07:15,0.37,4.38,0.00,20.13,20.93,24.42,14.02,44.96,1023.94,2049.90,2001.43,2001.32,2312.84,599.66,605.83,15.22,0000 0000 0000 0000 000000
2018-01-16 03:12:17,0.39,4.40,0.00,20.14,20.94,24.43,14.02,44.83,1023.94,2049.72,1997.33,1998.32,2309.41,600.22,606.41,15.27,0000 0000 0000 0000 000000
2018-01-16 03:17:18,0.59,4.43,0.00,20.13,20.94,24.44,14.05,44.84,1023.94,2049.45,1990.99,1993.60,2304.15,600.28,606.53,15.33,0000 0000 0000 0000 000000
2018-01-16 03:22:19,0.48,4.46,0.00,20.14,20.94,24.44,14.12,44.83,1023.94,2049.20,1985.18,1989.32,2299.46,600.23,606.35,15.38,0000 0000 0000 0000 000000
2018-01-16 03:27:20,0.48,4.48,0.00,20.13,20.94,24.45,14.00,44.83,1023.94,2049.13,1980.06,1985.55,2295.26,599.66,605.86,15.43,0000 0000 0000 0000 000000
2018-01-16 03:32:22,0.60,4.51,0.00,20.14,20.94,24.45,14.01,44.89,1023.94,2049.13,1974.04,1981.31,2290.42,599.92,606.23,15.48,0000 0000 0000 0000 000000
2018-01-16 03:37:23,0.67,4.54,0.00,20.14,20.94,24.47,13.98,44.83,1023.94,2049.04,1966.96,1976.19,2284.72,599.70,605.82,15.53,0000 0000 0000 0000 000000
2018-01-16 03:42:25,0.64,4.57,0.00,20.14,20.95,24.49,14.02,44.86,1023.94,2049.06,1960.15,1971.18,2279.19,600.20,606.37,15.58,0000 0000 0000 0000 000000
2018-01-16 03:47:26,0.64,4.61,0.00,20.16,20.95,24.47,14.02,45.00,1023.94,2049.04,1953.43,1966.33,2273.75,600.28,606.37,15.63,0000 0000 0000 0000 000000
2018-01-16 03:52:27,0.61,4.64,0.00,20.16,20.97,24.48,14.01,44.89,1023.94,2049.05,1947.06,1961.69,2268.75,599.73,605.96,15.68,0000 0000 0000 0000 000000
2018-01-16 03:57:29,0.62,4.67,0.07,20.18,20.97,24.49,14.02,44.91,1023.94,2049.04,1940.74,1956.97,2263.55,599.84,606.05,15.73,0000 0000 0000 0000 000000
2018-01-16 04:02:30,0.59,4.70,1.00,20.17,20.97,24.49,14.00,44.82,1023.94,2049.02,1934.66,1952.46,2258.38,599.95,606.07,15.78,0000 0000 0000 0000 000000
2018-01-16 04:07:31,0.67,4.73,1.00,20.16,20.97,24.50,14.12,45.03,1023.96,2049.03,1928.05,1947.34,2252.79,600.32,606.45,15.83,0000 0000 0000 0000 000000
2018-01-16 04:12:33,0.60,4.76,1.00,20.16,20.97,24.51,14.04,44.94,1024.00,2049.01,1921.90,1942.82,2247.61,599.83,606.11,15.88,0000 0000 0000 0000 000000
2018-01-16 04:17:34,0.60,4.79,1.00,20.15,20.98,24.48,13.98,44.82,1023.98,2049.00,1915.81,1938.36,2242.59,600.04,606.35,15.93,0000 0000 0000 0000 000000
2018-01-16 04:22:36,0.59,4.82,1.00,20.17,20.99,24.48,13.99,44.83,1024.09,2049.00,1909.77,1934.07,2237.93,600.08,606.34,15.98,0000 0000 0000 0000 000000
2018-01-16 04:27:37,0.64,4.85,1.00,20.19,20.99,24.49,13.99,44.88,1024.15,2049.00,1903.32,1929.54,2232.84,599.69,605.94,16.03,0000 0000 0000 0000 000000
2018-01-16 04:32:38,0.63,4.89,1.00,20.19,20.99,24.50,13.96,44.85,1024.12,2049.00,1896.81,1924.94,2227.74,599.39,605.54,16.08,0000 0000 0000 0000 000000
2018-01-16 04:37:39,0.63,4.92,1.00,20.18,20.99,24.52,14.09,44.85,1024.29,2049.00,1890.31,1920.47,2222.69,600.32,606.56,16.13,0000 0000 0000 0000 000000
2018-01-16 04:42:40,0.58,4.95,1.00,20.18,20.99,24.51,14.05,44.89,1024.42,2049.00,1884.26,1916.30,2218.01,599.85,606.23,16.18,0000 0000 0000 0000 000000
2018-01-16 04:47:42,0.57,4.98,1.00,20.19,20.99,24.50,14.01,44.96,1024.43,2049.00,1878.51,1912.28,2213.42,600.08,606.33,16.23,0000 0000 0000 0000 000000
2018-01-16 04:52:43,0.53,5.00,1.00,20.19,20.99,24.53,14.03,44.97,1024.42,2048.99,1873.12,1908.44,2209.03,600.00,606.27,16.28,0000 0000 0000 0000 000000
2018-01-16 04:57:44,0.60,5.03,1.00,20.17,20.99,24.50,14.02,45.05,1024.40,2048.99,1867.35,1904.35,2204.42,600.12,606.52,16.33,0000 0000 0000 0000 000000
2018-01-16 05:02:45,0.66,5.07,1.00,20.18,20.99,24.51,14.01,44.94,1024.43,2048.98,1860.82,1899.78,2199.26,600.06,606.46,16.38,0000 0000 0000 0000 000000
2018-01-16 05:07:47,0.64,5.10,1.00,20.16,20.99,24.53,14.02,44.89,1024.43,2048.98,1854.44,1895.23,2194.20,599.80,606.31,16.43,0000 0000 0000 0000 000000
2018-01-16 05:12:48,0.61,5.13,1.00,20.16,20.99,24.51,14.04,45.03,1024.43,2048.97,1848.35,1890.92,2189.39,600.03,606.41,16.48,0000 0000 0000 0000 000000
2018-01-16 05:17:49,0.53,5.16,1.00,20.18,20.99,24.50,14.01,45.10,1024.43,2048.97,1843.04,1887.13,2185.08,599.71,606.05,16.53,0000 0000 0000 0000 000000
2018-01-16 05:22:50,0.48,5.18,1.00,20.18,21.00,24.51,14.01,45.16,1024.43,2048.96,1838.35,1883.71,2181.22,599.74,606.13,16.58,0000 0000 0000 0000 000000
2018-01-16 05:27:52,0.43,5.21,1.00,20.16,21.00,24.53,14.03,45.09,1024.43,2048.98,1834.14,1880.64,2177.76,600.16,606.68,16.63,0000 0000 0000 0000 000000
2018-01-16 05:32:53,0.47,5.23,1.00,20.16,21.00,24.55,14.10,45.20,1024.43,2048.96,1829.77,1877.53,2174.30,600.26,606.67,16.68,0000 0000 0000 0000 000000
2018-01-16 05:37:54,0.47,5.25,1.00,20.16,21.00,24.54,14.01,45.11,1024.43,2048.94,1825.16,1874.23,2170.68,599.84,606.41,16.73,0000 0000 0000 0000 000000
2018-01-16 05:42:56,0.46,5.27,1.00,20.17,21.00,24.53,14.01,45.12,1024.43,2048.92,1820.68,1871.05,2167.09,600.06,606.52,16.78,0000 0000 0000 0000 000000
2018-01-16 05:47:57,0.47,5.30,1.00,20.20,21.00,24.53,14.00,45.17,1024.43,2048.93,1816.14,1867.83,2163.46,599.66,605.96,16.83,0000 0000 0000 0000 000000
2018-01-16 05:52:58,0.44,5.32,1.00,20.19,21.00,24.52,14.10,45.16,1024.43,2048.85,1811.80,1864.70,2159.98,600.02,606.39,16.88,0000 0000 0000 0000 000000
2018-01-16 05:58:00,0.42,5.34,0.83,20.21,21.00,24.53,14.01,45.23,1024.44,2048.83,1807.76,1861.80,2156.67,599.92,606.26,16.93,0000 0000 0000 0000 000000
2018-01-16 06:03:01,0.40,5.37,0.00,20.20,21.00,24.53,14.04,45.19,1024.47,2048.54,1803.61,1858.82,2153.25,600.13,606.50,16.98,0000 0000 0000 0000 000000
2018-01-16 06:08:02,0.45,5.39,0.00,20.20,21.00,24.54,13.98,45.19,1024.48,2048.44,1799.36,1855.86,2149.88,599.84,606.24,17.03,0000 0000 0000 0000 000000
2018-01-16 06:13:03,0.44,5.41,0.00,20.20,21.00,24.52,14.05,45.14,1024.50,2048.50,1795.17,1852.98,2146.51,600.19,606.51,17.08,0000 0000 0000 0000 000000
2018-01-16 06:18:05,0.42,5.43,0.00,20.20,21.00,24.55,14.10,45.21,1024.70,2048.31,1791.10,1850.03,2143.16,600.10,606.56,17.13,0000 0000 0000 0000 000000
2018-01-16 06:23:06,0.43,5.45,0.00,20.20,21.00,24.53,14.08,45.33,1024.90,2048.12,1786.91,1847.03,2139.79,600.11,606.73,17.18,0000 0000 0000 0000 000000
2018-01-16 06:28:07,0.44,5.48,0.00,20.19,21.00,24.53,14.02,45.26,1024.91,2048.13,1782.66,1844.06,2136.42,600.17,606.84,17.23,0000 0000 0000 0000 000000
2018-01-16 06:33:08,0.45,5.50,0.00,20.22,21.00,24.50,14.03,45.05,1024.91,2048.30,1778.55,1841.20,2133.22,599.91,606.58,17.28,0000 0000 0000 0000 000000
2018-01-16 06:38:10,0.50,5.52,0.00,20.21,21.00,24.50,14.05,45.31,1024.92,2048.52,1774.22,1838.21,2130.00,599.88,606.50,17.33,0000 0000 0000 0000 000000
2018-01-16 06:43:11,0.49,5.55,0.00,20.23,21.01,24.51,14.07,45.39,1024.92,2048.86,1769.73,1835.20,2126.75,600.25,606.94,17.38,0000 0000 0000 0000 000000
2018-01-16 06:48:12,0.55,5.57,0.00,20.21,21.02,24.52,14.09,45.51,1024.92,2048.93,1764.84,1831.86,2123.00,599.76,606.37,17.43,0000 0000 0000 0000 000000
2018-01-16 06:53:13,0.58,5.60,0.00,20.21,21.02,24.52,14.05,45.61,1024.90,2048.97,1759.47,1828.20,2118.88,599.89,606.58,17.48,0000 0000 0000 0000 000000
2018-01-16 06:58:14,0.59,5.63,0.20,20.22,21.02,24.53,14.08,45.58,1024.92,2048.95,1753.85,1824.42,2114.64,600.05,606.67,17.53,0000 0000 0000 0000 000000
2018-01-16 07:03:16,0.53,5.66,1.00,20.21,21.02,24.54,14.06,45.53,1024.90,2048.97,1748.87,1820.91,2110.71,600.26,606.87,17.58,0000 0000 0000 0000 000000
2018-01-16 07:08:17,0.73,5.69,1.00,20.21,21.02,24.52,14.00,45.38,1024.92,2048.82,1742.55,1816.53,2105.79,599.99,606.52,17.63,0000 0000 0000 0000 000000
2018-01-16 07:13:18,0.87,5.74,1.00,20.21,21.02,24.55,14.06,45.51,1024.92,2048.69,1734.33,1811.03,2099.57,599.86,606.46,17.68,0000 0000 0000 0000 000000
2018-01-16 07:18:20,0.84,5.78,1.00,20.21,21.02,24.54,14.11,45.50,1024.92,2048.42,1726.30,1805.61,2093.46,600.21,606.86,17.73,0000 0000 0000 0000 000000
2018-01-16 07:23:21,0.80,5.82,1.00,20.22,21.03,24.55,14.03,45.38,1024.92,2048.22,1718.68,1800.50,2087.66,600.04,606.66,17.78,0000 0000 0000 0000 000000
2018-01-16 07:28:22,0.82,5.86,1.00,20.23,21.04,24.53,14.00,45.37,1024.93,2048.18,1711.39,1795.52,2082.07,599.94,606.41,17.83,0000 0000 0000 0000 000000
2018-01-16 07:33:24,0.82,5.90,1.00,20.22,21.04,24.55,14.05,45.42,1024.96,2048.10,1703.90,1790.44,2076.17,600.14,606.89,17.88,0000 0000 0000 0000 000000
2018-01-16 07:38:25,0.67,5.93,1.00,20.22,21.04,24.53,14.05,45.23,1025.01,2048.02,1697.51,1786.11,2071.21,599.68,606.46,17.93,0000 0000 0000 0000 000000
2018-01-16 07:43:27,0.71,5.97,1.00,20.24,21.04,24.54,13.97,45.17,1025.06,2048.02,1691.13,1781.87,2066.37,599.82,606.50,17.98,0000 0000 0000 0000 000000
2018-01-16 07:48:28,0.72,6.01,1.00,20.24,21.04,24.55,14.07,45.26,1025.23,2048.00,1684.64,1777.52,2061.44,600.19,606.90,18.03,0000 0000 0000 0000 000000
2018-01-16 07:53:29,0.73,6.04,1.00,20.25,21.04,24.53,14.03,45.16,1025.33,2048.00,1678.17,1773.09,2056.47,600.04,606.81,18.08,0000 0000 0000 0000 000000
2018-01-16 07:58:31,0.74,6.08,1.00,20.25,21.04,24.52,14.06,45.18,1025.39,2048.00,1671.71,1768.72,2051.57,600.21,607.07,18.13,0000 0000 0000 0000 000000
2018-01-16 08:03:32,0.79,6.12,1.00,20.26,21.04,24.54,14.04,45.23,1025.40,2048.00,1664.92,1764.01,2046.45,599.98,606.93,18.18,0000 0000 0000 0000 000000
2018-01-16 08:08:33,0.65,6.16,1.00,20.24,21.04,24.54,13.95,45.28,1025.40,2048.00,1658.93,1759.93,2041.89,599.74,606.61,18.23,0000 0000 0000 0000 000000
2018-01-16 08:13:35,0.61,6.19,1.00,20.25,21.04,24.54,14.07,45.27,1025.40,2048.00,1653.59,1756.26,2037.78,600.05,606.85,18.29,0000 0000 0000 0000 000000
2018-01-16 08:18:36,0.62,6.22,1.00,20.25,21.04,24.54,14.14,45.38,1025.41,2047.99,1648.37,1752.67,2033.73,599.83,606.65,18.34,0000 0000 0000 0000 000000
2018-01-16 08:23:37,0.71,6.25,1.00,20.22,21.04,24.55,14.07,45.21,1025.42,2047.99,1642.46,1748.64,2029.18,600.17,607.11,18.39,0000 0000 0000 0000 000000
2018-01-16 08:28:39,0.79,6.29,1.00,20.23,21.04,24.56,14.03,45.27,1025.43,2047.99,1635.85,1744.09,2024.06,600.20,607.06,18.44,0000 0000 0000 0000 000000
2018-01-16 08:33:40,0.81,6.33,1.00,20.24,21.04,24.56,14.06,45.26,1025.52,2047.99,1628.94,1739.34,2018.72,599.99,606.86,18.49,0000 0000 0000 0000 000000
2018-01-16 08:38:41,0.87,6.37,1.00,20.27,21.04,24.56,14.04,45.27,1025.80,2047.99,1621.90,1734.39,2013.11,599.98,607.06,18.54,0000 0000 0000 0000 000000
2018-01-16 08:43:42,0.82,6.42,1.00,20.26,21.04,24.56,14.06,45.28,1025.83,2047.98,1615.00,1729.58,2007.61,599.77,606.61,18.59,0000 0000 0000 0000 000000
2018-01-16 08:48:44,0.60,6.45,1.00,20.27,21.04,24.54,14.08,45.27,1025.79,2047.98,1609.49,1725.89,2003.24,600.11,607.19,18.64,0000 0000 0000 0000 000000
2018-01-16 08:53:45,0.31,6.47,1.00,20.28,21.04,24.56,14.05,45.34,1025.80,2047.99,1606.53,1723.76,2000.86,599.84,606.84,18.69,0000 0000 0000 0000 000000
2018-01-16 08:58:46,0.22,6.49,1.00,20.27,21.05,24.57,14.11,45.27,1025.85,2047.99,1604.48,1722.43,1999.38,600.40,607.40,18.74,0000 0000 0000 0000 000000
2018-01-16 09:03:47,0.28,6.50,1.00,20.27,21.05,24.56,14.07,45.52,1025.85,2047.99,1602.33,1720.83,1997.63,599.96,607.00,18.79,0000 0000 0000 0000 000000
2018-01-16 09:08:48,0.25,6.51,1.00,20.26,21.05,24.56,14.08,45.37,1025.87,2047.99,1600.14,1719.31,1995.88,600.03,607.02,18.84,0000 0000 0000 0000 000000
2018-01-16 09:13:50,0.22,6.52,1.00,20.28,21.06,24.56,14.01,45.40,1025.89,2047.99,1598.38,1717.87,1994.30,599.93,606.97,18.89,0000 0000 0000 0000 000000
2018-01-16 09:18:51,0.25,6.54,1.00,20.29,21.07,24.59,13.99,45.43,1025.89,2048.01,1596.54,1716.51,1992.66,599.71,606.83,18.94,0000 0000 0000 0000 000000
2018-01-16 09:23:52,0.24,6.55,1.00,20.29,21.07,24.57,14.04,45.39,1025.89,2048.00,1594.63,1715.08,1990.98,600.04,607.05,18.99,0000 0000 0000 0000 000000
2018-01-16 09:28:53,0.29,6.56,0.67,20.29,21.07,24.57,13.99,45.38,1025.90,2048.00,1592.41,1713.45,1989.07,599.86,606.87,19.04,0000 0000 0000 0000 000000
2018-01-16 09:33:55,0.52,6.58,0.00,20.31,21.07,24.59,14.03,45.61,1025.90,2048.00,1588.73,1710.74,1986.05,599.90,606.90,19.09,0000 0000 0000 0000 000000
2018-01-16 09:38:57,0.41,6.61,0.00,20.31,21.07,24.59,14.15,45.52,1025.90,2048.00,1585.26,1708.22,1983.19,600.02,606.89,19.14,0000 0000 0000 0000 000000
2018-01-16 09:43:58,0.42,6.63,0.00,20.31,21.07,24.60,14.14,45.46,1025.90,2047.98,1582.01,1705.83,1980.43,599.98,607.08,19.19,0000 0000 0000 0000 000000
2018-01-16 09:48:59,0.40,6.65,0.00,20.32,21.08,24.59,14.07,45.44,1025.90,2047.97,1578.78,1703.47,1977.74,599.96,606.98,19.24,0000 0000 0000 0000 000000
2018-01-16 09:54:00,0.40,6.67,0.00,20.31,21.08,24.56,14.03,45.29,1025.90,2047.98,1575.58,1701.19,1975.10,599.63,606.65,19.29,0000 0000 0000 0000 000000
2018-01-16 09:59:02,0.43,6.69,0.00,20.29,21.09,24.57,14.04,45.33,1025.90,2047.97,1572.27,1698.84,1972.46,599.90,607.02,19.34,0000 0000 0000 0000 000000
2018-01-16 10:04:03,0.46,6.71,0.00,20.30,21.09,24.59,14.08,45.23,1025.90,2047.96,1568.66,1696.32,1969.60,600.04,607.17,19.39,0000 0000 0000 0000 000000
2018-01-16 10:09:04,0.47,6.74,0.00,20.29,21.09,24.57,14.12,45.38,1025.95,2047.97,1564.93,1693.67,1966.68,599.95,607.03,19.44,0000 0000 0000 0000 000000
2018-01-16 10:14:06,0.42,6.76,0.00,20.29,21.09,24.60,14.04,45.32,1026.00,2047.96,1561.50,1691.23,1963.94,600.26,607.30,19.49,0000 0000 0000 0000 000000
2018-01-16 10:19:07,0.39,6.78,0.00,20.28,21.09,24.60,14.07,45.31,1025.94,2047.97,1558.35,1689.03,1961.38,599.80,606.90,19.54,0000 0000 0000 0000 000000
2018-01-16 10:24:08,0.41,6.80,0.00,20.27,21.09,24.61,14.06,45.33,1025.91,2047.95,1555.23,1686.68,1958.75,599.52,606.62,19.59,0000 0000 0000 0000 000000
2018-01-16 10:29:09,0.38,6.82,0.00,20.26,21.09,24.62,14.05,45.42,1025.93,2047.96,1552.26,1684.53,1956.28,599.83,606.93,19.64,0000 0000 0000 0000 000000
2018-01-16 10:34:11,0.35,6.84,0.00,20.27,21.09,24.61,14.05,45.44,1025.95,2047.96,1549.45,1682.54,1954.02,600.00,607.01,19.69,0000 0000 0000 0000 000000
2018-01-16 10:39:12,0.39,6.86,0.00,20.26,21.09,24.60,14.18,45.66,1026.01,2047.96,1546.27,1680.51,1951.62,600.26,607.42,19.74,0000 0000 0000 0000 000000
2018-01-16 10:44:13,0.36,6.88,0.00,20.27,21.09,24.62,14.15,45.72,1026.03,2047.98,1543.40,1678.59,1949.42,600.06,607.21,19.79,0000 0000 0000 0000 000000
2018-01-16 10:49:14,0.37,6.90,0.00,20.28,21.10,24.63,14.07,45.47,1026.18,2047.98,1540.66,1676.56,1947.09,600.07,607.29,19.84,0000 0000 0000 0000 000000
2018-01-16 10:54:16,0.40,6.91,0.00,20.27,21.11,24.62,14.09,45.33,1026.24,2047.98,1537.73,1674.39,1944.53,600.34,607.58,19.89,0000 0000 0000 0000 000000
2018-01-16 10:59:16,0.40,6.94,0.00,20.26,21.12,24.59,14.12,45.29,1026.35,2047.97,1534.82,1672.16,1941.90,600.01,607.42,19.94,0000 0000 0000 0000 000000
2018-01-16 11:04:18,0.41,6.96,0.00,20.25,21.12,24.62,14.08,45.25,1026.38,2047.94,1531.76,1669.85,1939.23,600.17,607.61,19.99,0000 0000 0000 0000 000000
2018-01-16 11:09:19,0.36,6.98,0.00,20.26,21.12,24.57,14.07,45.20,1026.38,2047.92,1528.91,1667.79,1936.89,599.91,607.28,20.04,0000 0000 0000 0000 000000
2018-01-16 11:14:21,0.37,6.99,0.00,20.26,21.12,24.56,14.06,45.17,1026.38,2047.88,1526.05,1665.73,1934.49,599.63,606.91,20.09,0000 0000 0000 0000 000000
2018-01-16 11:19:22,0.38,7.01,0.00,20.27,21.12,24.58,14.10,45.33,1026.38,2047.83,1523.28,1663.69,1932.15,600.20,607.55,20.14,0000 0000 0000 0000 000000
2018-01-16 11:24:24,0.31,7.03,0.00,20.26,21.12,24.61,14.10,45.23,1026.38,2047.74,1520.64,1661.82,1929.90,600.06,607.42,20.19,0000 0000 0000 0000 000000
2018-01-16 11:29:25,0.33,7.05,0.00,20.27,21.12,24.58,14.05,45.16,1026.38,2047.65,1518.18,1659.97,1927.82,599.98,607.31,20.24,0000 0000 0000 0000 000000
2018-01-16 11:34:26,0.29,7.06,0.00,20.28,21.12,24.59,14.01,45.08,1026.38,2047.54,1515.86,1658.25,1925.81,600.06,607.57,20.29,0000 0000 0000 0000 000000
2018-01-16 11:39:28,0.32,7.08,0.00,20.29,21.12,24.58,14.04,45.17,1026.38,2047.44,1513.53,1656.53,1923.77,599.66,607.12,20.34,0000 0000 0000 0000 000000
2018-01-16 11:44:29,0.31,7.09,0.00,20.30,21.12,24.61,14.10,45.19,1026.37,2047.27,1510.98,1654.70,1921.67,599.88,607.18,20.39,0000 0000 0000 0000 000000
2018-01-16 11:49:30,0.31,7.11,0.00,20.29,21.13,24.57,14.06,45.12,1026.38,2047.20,1508.49,1652.86,1919.72,599.87,607.19,20.44,0000 0000 0000 0000 000000
2018-01-16 11:54:32,0.26,7.12,0.00,20.30,21.14,24.58,14.02,45.13,1026.38,2047.13,1506.52,1651.50,1918.06,599.77,607.13,20.49,0000 0000 0000 0000 000000
2018-01-16 11:59:33,0.23,7.14,0.00,20.29,21.14,24.60,14.07,45.20,1026.39,2047.13,1504.73,1650.19,1916.60,599.56,606.85,20.54,0000 0000 0000 0000 000000
2018-01-16 12:04:34,0.26,7.15,0.00,20.28,21.14,24.63,14.09,45.16,1026.42,2047.09,1502.91,1648.83,1914.99,600.23,607.56,20.59,0000 0000 0000 0000 000000
2018-01-16 12:09:36,0.27,7.16,0.00,20.29,21.14,24.62,14.14,45.28,1026.42,2047.06,1500.79,1647.38,1913.31,600.21,607.61,20.64,0000 0000 0000 0000 000000
2018-01-16 12:14:37,0.31,7.18,0.00,20.30,21.14,24.62,14.11,45.39,1026.56,2047.08,1498.64,1645.78,1911.55,600.05,607.53,20.69,0000 0000 0000 0000 000000
2018-01-16 12:19:38,0.28,7.19,0.00,20.31,21.14,24.65,14.12,45.42,1026.73,2047.05,1496.27,1644.12,1909.69,600.10,607.46,20.74,0000 0000 0000 0000 000000
2018-01-16 12:24:39,0.29,7.21,0.00,20.34,21.14,24.65,14.11,45.41,1026.76,2047.13,1494.19,1642.66,1908.12,599.75,607.12,20.79,0000 0000 0000 0000 000000
2018-01-16 12:29:41,0.30,7.22,0.00,20.35,21.15,24.70,14.01,45.42,1026.83,2047.32,1492.15,1641.19,1906.44,599.53,606.97,20.84,0000 0000 0000 0000 000000
2018-01-16 12:34:42,0.24,7.24,0.00,20.36,21.16,24.68,14.03,45.27,1026.79,2047.27,1490.36,1639.81,1904.76,599.83,607.35,20.89,0000 0000 0000 0000 000000
2018-01-16 12:39:43,0.23,7.25,0.00,20.37,21.17,24.68,14.02,45.27,1026.65,2047.22,1488.75,1638.54,1903.33,599.85,607.15,20.94,0000 0000 0000 0000 000000
2018-01-16 12:44:44,0.18,7.26,0.00,20.35,21.17,24.66,14.09,45.42,1026.67,2047.10,1487.30,1637.41,1901.84,600.39,607.75,20.99,0000 0000 0000 0000 000000
2018-01-16 12:49:46,0.24,7.27,0.00,20.35,21.17,24.69,14.07,45.31,1026.63,2047.06,1485.54,1636.02,1900.32,599.85,607.19,21.04,0000 0000 0000 0000 000000
2018-01-16 12:54:47,0.32,7.28,0.00,20.37,21.17,24.68,14.06,45.33,1026.52,2047.04,1483.41,1634.54,1898.53,600.27,607.59,21.09,0000 0000 0000 0000 000000